Location: Goll?ig?dem
(16.6773°N, 80.7332°E)
Time: 11:00:52
(UTC+00:00)

Envisat - Pass Details

Date: 25 September 2021
Orbit: 764 x 766 km, 98.2° (Epoch: 20 October)

Event Time Altitude Azimuth Distance (km) Brightness Sun altitude
Rises 22:28:27 0° 40° (NE) 3,221 6.9 -29.0°
Reaches altitude 10° 22:31:44 10° 63° (ENE) 2,294 6.3 -28.2°
Maximum altitude 22:34:37 15° 98° (E) 1,950 5.9 -27.6°
Drops below altitude 10° 22:37:30 10° 133° (SE) 2,292 5.9 -26.9°
Sets 22:40:45 0° 155° (SSE) 3,216 6.4 -26.1°
